Regional Weather Roundup
Issued by NWS Cleveland, OH

Home | Current Version | Previous Version | Text Only | Print | Product List | Glossary Off
Versions: 1 2 3 4 5 6 7 8 9 10 11 12 13 14 15 16 17 18 19 20 21 22 23 24 25 26 27 28 29 30 31 32 33 34 35 36 37 38 39 40 41 42 43 44 45 46 47 48 49 50

000
ASUS41 KCLE 181802
RWRCLE
OHIO REGIONAL WEATHER ROUNDUP
NATIONAL WEATHER SERVICE CLEVELAND, OH
100 PM EST WED JAN 18 2017

NOTE: "FAIR" INDICATES FEW OR NO CLOUDS BELOW 12,000 FEET WITH NO
SIGNIFICANT WEATHER AND/OR OBSTRUCTIONS TO VISIBILITY.

OHZ001>008-015>018-024>027-034-035-043-044-181900-
   NORTHWEST OHIO

CITY           SKY/WX    TMP DP  RH WIND       PRES   REMARKS
DEFIANCE       CLOUDY    37  34  89 W7        30.11F
FINDLAY        CLOUDY    39  34  82 W13       30.11F
TOLEDO EXPRESS CLOUDY    38  36  92 W13       30.09F
TOLEDO EXEC    CLOUDY    38  36  92 SW13      30.10F FOG
LIMA           CLOUDY    37  36  96 W13       30.13F
$$

OHZ009>014-019>023-028>033-038-089-181900-
   NORTHEAST OHIO

CITY           SKY/WX    TMP DP  RH WIND       PRES   REMARKS
CLE-HOPKINS    CLOUDY    39  35  86 W10       30.11F FOG
CLE-LAKEFRONT  CLOUDY    38  36  92 SW15      30.08F
CUY CO. ARPT   DRIZZLE   39  36  87 W14G25    30.09S FOG
LORAIN-ELYRIA  CLOUDY    37  34  89 W13       30.10F FOG
ASHTABULA      CLOUDY    36  35  96 W14       30.06F FOG
AKRON-CANTON   CLOUDY    38  34  85 W13       30.08F FOG
WOOSTER        CLOUDY    37  34  89 W12       30.10F
MANSFIELD      CLOUDY    36  36 100 W9        30.10F
YOUNGSTOWN     LGT RAIN  37  34  89 W9        30.06F FOG
$$

OHZ042-051>053-060>062-070>072-077>081-181900-
  SOUTHWEST OHIO

CITY           SKY/WX    TMP DP  RH WIND       PRES   REMARKS
CINC-COVINGTON CLOUDY    40  36  86 W10       30.18F
CINC-LUNKEN    CLOUDY    41  36  82 W7        30.21F
HAMILTON       CLOUDY    40  37  89 W8        30.20F
DAYTON         CLOUDY    37  34  89 W9        30.16F
WRIGHT-PAT AFB CLOUDY    38  36  92 W10       30.16F
DAYTON GENERAL CLOUDY    38  35  89 W7        30.16F
WILMINGTON     CLOUDY    38  35  89 W10       30.16F
$$

OHZ036-037-039>041-045>050-054>059-063>069-073>076-082>088-181900-
  CENTRAL AND SOUTHEAST OHIO

CITY           SKY/WX    TMP DP  RH WIND       PRES   REMARKS
COLUMBUS       CLOUDY    42  35  76 W12       30.14F
OSU AIRPORT    CLOUDY    40  36  86 W10       30.13F
BOLTON FIELD   CLOUDY    39  36  87 W7        30.16F
RICKENBACK AFB   N/A     39  35  84 W12       30.15F
NEWARK         CLOUDY    40  35  83 W9        30.13F
MARION         CLOUDY    38  35  89 W9        30.13F
LANCASTER      CLOUDY    41  35  79 W9        30.15F
ZANESVILLE     CLOUDY    41  34  76 W12       30.13F
NEW PHILLY     NOT AVBL
$$




USA.gov is the U.S. government's official web portal to all federal, state and local government web resources and services.